TimePDT,TemperatureF,Dew PointF,Humidity,Sea Level PressureIn,VisibilityMPH,Wind Direction,Wind SpeedMPH,Gust SpeedMPH,PrecipitationIn,Events,Conditions,WindDirDegrees,DateUTC
12:53 AM,84.9,54.0,34,29.83,10.0,Calm,Calm,-,N/A,,Clear,0,2013-09-05 07:53:00
1:53 AM,82.9,57.9,42,29.82,10.0,ESE,3.5,-,N/A,,Clear,110,2013-09-05 08:53:00
2:53 AM,81.0,59.0,47,29.81,10.0,East,4.6,-,N/A,,Clear,80,2013-09-05 09:53:00
3:53 AM,80.1,59.0,48,29.81,10.0,Calm,Calm,-,N/A,,Clear,0,2013-09-05 10:53:00
4:53 AM,80.1,53.1,39,29.82,10.0,Calm,Calm,-,N/A,,Clear,0,2013-09-05 11:53:00
5:53 AM,78.1,54.0,43,29.82,10.0,Calm,Calm,-,N/A,,Clear,0,2013-09-05 12:53:00
6:53 AM,78.1,59.0,52,29.84,10.0,Calm,Calm,-,N/A,,Clear,0,2013-09-05 13:53:00
7:53 AM,81.0,55.0,41,29.85,10.0,Calm,Calm,-,N/A,,Clear,0,2013-09-05 14:53:00
8:53 AM,86.0,55.0,35,29.85,10.0,Calm,Calm,-,N/A,,Clear,0,2013-09-05 15:53:00
9:53 AM,91.0,55.0,29,29.85,10.0,Variable,3.5,-,N/A,,Clear,0,2013-09-05 16:53:00
10:53 AM,95.0,55.0,26,29.85,10.0,SSE,6.9,-,N/A,,Clear,150,2013-09-05 17:53:00
11:53 AM,98.1,57.9,26,29.84,10.0,South,8.1,-,N/A,,Clear,190,2013-09-05 18:53:00
12:53 PM,100.0,54.0,21,29.83,10.0,SE,6.9,-,N/A,,Clear,140,2013-09-05 19:53:00
1:53 PM,100.9,50.0,18,29.82,10.0,SSE,8.1,-,N/A,,Clear,160,2013-09-05 20:53:00
2:53 PM,102.9,46.9,15,29.79,10.0,SSE,8.1,-,N/A,,Clear,160,2013-09-05 21:53:00
3:53 PM,102.9,48.9,16,29.78,10.0,SSE,10.4,-,N/A,,Clear,150,2013-09-05 22:53:00
4:53 PM,100.9,50.0,18,29.78,10.0,SSE,10.4,-,N/A,,Clear,160,2013-09-05 23:53:00
5:53 PM,98.1,50.0,20,29.77,10.0,ESE,6.9,-,N/A,,Clear,110,2013-09-06 00:53:00
6:53 PM,96.1,50.0,21,29.78,10.0,ESE,9.2,-,N/A,,Clear,120,2013-09-06 01:53:00
7:53 PM,91.9,52.0,26,29.80,10.0,ESE,5.8,-,N/A,,Clear,120,2013-09-06 02:53:00
8:53 PM,87.1,54.0,32,29.82,10.0,ESE,4.6,-,N/A,,Clear,120,2013-09-06 03:53:00
9:53 PM,86.0,55.0,35,29.83,10.0,Calm,Calm,-,N/A,,Clear,0,2013-09-06 04:53:00
10:53 PM,84.9,55.0,36,29.83,10.0,SSE,3.5,-,N/A,,Clear,150,2013-09-06 05:53:00
11:53 PM,84.0,55.9,38,29.83,10.0,Calm,Calm,-,N/A,,Clear,0,2013-09-06 06:53:00